Location: Bourg-d�Oueil
(42.8588°N, 0.4991°E)
Time: 20:38:13
(UTC+00:00)

Daily predictions for brighter satellites

Satellite Brightness Start Highest point End
(mag) Time Altitude Azimuth Time Altitude Azimuth Time Altitude Azimuth
Genesis I 3.5 20:05:24 10° S 20:09:01 42° ESE 20:12:45 10° NE
Cosmos 1934 Rocket 4.0 20:02:59 10° N 20:09:07 78° E 20:15:17 10° SSE
Cosmos 2278 4.2 20:05:29 10° SSW 20:11:08 68° WNW 20:16:49 10° NNE
Cosmos 2227 4.4 20:05:35 10° NNW 20:11:09 59° ENE 20:16:41 10° SE
CENTAUR R/B 2.5 20:07:11 10° SSW 20:12:55 78° ESE 20:19:48 10° NE
Cosmos 676 Rocket 4.3 20:09:55 10° NNW 20:15:11 55° ENE 20:20:24 10° SE
SJ-6B 4.0 20:11:41 10° S 20:15:37 45° W 20:19:33 10° NNW
Cosmos 1470 3.3 20:12:18 10° N 20:16:07 42° ENE 20:19:53 10° SSE
Cosmos 1954 Rocket 4.3 20:10:56 10° NNW 20:16:12 58° ENE 20:21:26 10° SE
Ariane Rocket 3.1 20:12:23 10° SSE 20:17:29 86° W 20:22:37 10° NNW
SL-24 DEB 4.4 20:15:08 10° S 20:19:51 84° W 20:24:39 10° N
Cosmos 1980 Rocket 3.5 20:18:54 10° SW 20:24:18 46° WNW 20:29:43 10° NNE
Cosmos 1674 4.4 20:22:38 10° SE 20:24:56 16° E 20:27:15 10° NE
Cosmos 1315 Rocket 3.3 20:22:31 10° N 20:26:33 48° ENE 20:30:32 10° SSE
USA 186 4.4 20:26:58 10° WSW 20:28:26 13° W 20:29:57 10° WNW
Okean 1 Rocket 3.1 20:26:19 10° N 20:30:40 64° E 20:35:00 10° SSE
Cosmos 1140 Rocket 4.2 20:26:57 10° NNW 20:32:04 53° WSW 20:37:07 10° S
Resurs 1-3 4.2 20:27:49 10° S 20:32:07 58° W 20:36:28 10° NNW
Cosmos 1727 Rocket 4.3 20:27:34 10° SSE 20:33:35 48° E 20:39:35 10° NNE
Cosmos 1378 Rocket 3.8 20:35:00 10° SSW 20:39:18 73° W 20:43:41 10° N
Cosmos 1605 Rocket 4.1 20:33:30 10° N 20:39:57 85° E 20:46:18 10° S
Cosmos 220 Rocket 4.2 20:35:54 10° SSW 20:40:12 73° WNW 20:44:30 10° NNE
OBJECT-B 3.6 20:39:00 10° SW 20:40:57 15° W 20:42:55 10° NW
BREEZE-M DEB (TANK) 2.2 20:39:14 10° SW 20:41:29 53° SE 20:45:03 10° ENE
Meteor 2-10 4.2 20:37:06 10° NNW 20:42:09 71° W 20:47:15 10° S
Cosmos 1726 2.0 20:39:05 10° N 20:42:43 87° E 20:46:21 10° S
Cosmos 1844 Rocket 4.0 20:38:04 10° N 20:42:57 29° NE 20:47:39 11° ESE
Cosmos 2285 Rocket 4.1 20:36:40 10° SSW 20:43:06 86° ESE 20:49:34 10° NNE
Okean 2 3.6 20:40:51 10° SSW 20:44:56 72° W 20:49:01 10° N
Cosmos 1758 3.4 20:41:01 10° N 20:44:57 58° E 20:48:22 13° SSE
Meteor 2-20 4.4 20:41:45 10° S 20:47:50 78° E 20:53:56 10° N
Cosmos 292 Rocket 3.7 20:43:59 10° SSW 20:48:50 83° ESE 20:53:40 10° NNE
Lacrosse 5 rocket 2.2 20:49:46 10° S 20:52:38 21° SE 20:55:28 10° ENE
Cosmos 2263 Rocket 2.8 20:50:33 10° NNW 20:56:06 54° WSW 21:01:36 10° S
SPOT 5 3.8 20:53:08 15° SE 20:56:56 37° ENE 21:01:29 10° N
Cosmos 1707 2.9 20:54:46 10° SSW 20:58:38 74° W 21:02:32 10° N
Cosmos 1452 Rocket 3.5 20:55:14 10° SSW 21:00:30 77° ESE 21:05:47 10° NNE
In-Cosmos 22 4.0 21:01:05 10° S 21:06:21 81° E 21:11:39 10° NNE
Resurs 01 Rocket 2.7 21:04:22 10° S 21:08:30 41° W 21:12:41 10° NNW
Terra 2.9 21:06:08 17° ESE 21:09:04 32° ENE 21:13:18 10° N
SPOT 1/Viking Rocket 3.6 21:05:01 13° S 21:09:32 82° WSW 21:14:43 10° NNW
Cosmos 1459 Rocket 4.2 21:04:24 10° N 21:10:18 52° ENE 21:14:34 19° SSE
Cosmos 2333 Rocket 3.3 21:09:00 18° SE 21:11:42 26° ESE 21:16:21 10° NE
Cosmos 1850 Rocket 4.1 21:07:01 10° NNW 21:12:19 67° ENE 21:15:54 21° SSE
Cosmos 1025 Rocket 3.7 21:10:01 21° SE 21:12:25 37° E 21:16:27 10° NNE
Lacrosse 5 2.0 21:07:42 10° NW 21:12:44 67° SW 21:16:06 21° SSE
Cosmos 1953 2.6 21:08:55 10° N 21:12:54 52° E 21:15:11 23° SSE
CARTOSAT-1 3.6 21:10:58 20° SSE 21:13:54 71° ENE 21:18:12 10° N
USA 245 4.0 21:11:38 16° S 21:15:17 81° W 21:20:51 10° NNW
NOSS 3-2 (C) 4.4 21:11:16 10° WSW 21:16:43 50° NW 21:23:01 10° NNE
Geosat 4.0 21:15:06 20° SE 21:18:33 76° ENE 21:23:34 10° NNW
FALCON 9 DEB 3.0 21:16:57 10° SW 21:20:23 82° SE 21:23:48 10° NE
Spot 2 Rocket 3.5 21:17:52 19° SSE 21:21:35 90° WSW 21:26:42 10° NNW
Cosmos 1975 Rocket 3.0 21:18:22 13° S 21:22:14 88° W 21:26:38 10° N
ATLAS 3B R/B 3.1 21:18:04 13° S 21:23:16 37° ESE 21:29:18 10° NE
Cosmos 1331 Rocket 4.1 21:22:13 15° S 21:26:30 58° ESE 21:31:41 10° NNE
Cosmos 2219 Rocket 3.1 21:24:39 22° SE 21:26:52 29° ESE 21:31:41 10° NE
Cosmos 1844 4.2 21:21:31 10° NNW 21:26:55 49° ENE 21:30:18 22° SE
ERS-1 Rocket 3.0 21:24:38 23° SSE 21:27:49 71° ENE 21:32:51 10° N
Cosmos 1626 2.3 21:27:13 30° SSE 21:28:43 51° E 21:32:19 10° NNE
Cosmos 1461 3.3 21:24:49 10° NNW 21:28:58 52° NE 21:30:58 26° ESE
Meteor 2-11 Rocket 4.5 21:23:25 10° N 21:29:31 66° E 21:33:25 23° SSE
Aureole 1 Rocket 4.2 21:29:41 10° NNW 21:35:34 73° ENE 21:40:16 24° SSE
Cosmos 2123 Rocket 4.2 21:34:03 22° SSE 21:38:02 56° E 21:44:12 10° NNE
SL-8 R/B 4.1 21:33:28 10° WNW 21:38:13 60° NNE 21:41:58 16° E
BREEZE-M DEB (TANK) 1.8 21:35:42 10° NW 21:38:48 66° NNE 21:39:08 53° E
BREEZE-M DEB (TANK) 1.4 21:36:47 10° WSW 21:39:10 83° SE 21:43:28 10° ENE
KORONAS-FOTON 4.3 21:36:31 16° SSW 21:39:25 58° W 21:43:11 10° N
ATLAS 2A CENTAUR R/B 4.5 21:37:17 10° SW 21:41:35 13° SSW 21:41:59 13° S
Cosmos 2237 Rocket 4.3 21:42:20 10° E 21:42:20 10° E 21:42:56 10° E
ATLAS CENTAUR R/B 2.8 21:40:05 10° NNW 21:43:59 32° NE 21:46:25 19° E
Cosmos 1741 Rocket 4.2 21:39:12 10° NNW 21:44:25 68° WSW 21:47:27 25° S
Cosmos 1302 Rocket 4.5 21:42:30 28° SSE 21:44:39 42° ESE 21:49:35 10° NNE
ARIANE 5 R/B 3.1 21:43:35 22° S 21:46:14 55° W 21:50:39 10° NNW
USA 215 3.4 21:40:15 10° ENE 21:46:34 50° SE 21:52:52 10° SSW
SL-16 R/B 3.8 21:41:54 10° WSW 21:47:06 36° WNW 21:52:20 10° N
Celestis-02/Orion 38 4.5 21:45:21 29° SSE 21:48:01 86° ENE 21:53:11 10° NNW
Cosmos 2360 Rocket 2.4 21:42:45 10° SSW 21:48:23 75° WNW 21:54:04 10° NNE
Cosmos 2322 Rocket 3.4 21:44:25 10° SW 21:49:50 44° WNW 21:55:17 10° NNE
Cosmos 2100 Rocket 4.2 21:44:00 10° NNW 21:50:21 71° W 21:54:46 21° S
Centaur D AC-29 3.6 21:27:23 10° W 21:56:10 31° SSW 21:59:44 24° S
Cosmos 1674 4.2 21:57:09 12° SW 22:00:08 31° WNW 22:03:30 10° NNW
COSMOS 2428 3.0 22:01:02 32° SSE 22:03:13 47° ESE 22:08:41 10° NE
Cosmos 389 Rocket 4.4 22:00:57 10° NNE 22:03:19 17° ENE 22:03:30 17° ENE
SL-08 R/B 4.5 21:59:20 10° N 22:05:46 82° E 22:08:59 31° SSE
Cosmos 2322 3.6 22:02:40 24° SSW 22:06:09 73° ESE 22:11:47 10° NNE
CZ-4B DEB 4.2 22:06:05 62° SSW 22:06:25 70° W 22:09:35 10° NNW
Cosmos 1544 Rocket 3.9 22:02:15 10° NNW 22:06:41 62° W 22:08:31 33° SSW
H-2A R/B 3.3 22:03:45 10° NNE 22:07:51 85° WNW 22:09:25 37° SSW
Cosmos 1300 2.6 22:06:10 10° N 22:09:58 69° E 22:10:36 56° SE
Cosmos 1455 Rocket 4.5 22:07:33 10° NNW 22:11:32 32° W 22:14:02 19° SW
Cosmos 2016 Rocket 4.0 22:06:44 10° N 22:12:49 76° W 22:16:04 29° S
Cosmos 2278 Rocket 3.7 22:10:26 10° N 22:15:15 27° NE 22:18:27 17° E
Cosmos 1346 Rocket 3.5 22:19:17 38° E 22:19:21 38° E 22:23:05 10° NNE
USA 267 4.3 22:13:29 10° E 22:19:33 42° NNE 22:25:37 10° NW
Cosmos 1725 Rocket 4.1 22:18:05 10° NNW 22:24:15 72° W 22:27:17 32° S
Cosmos 1844 Rocket 3.3 22:21:38 10° NW 22:27:02 46° WSW 22:29:19 31° SSW
Meteor 2-5 Rocket 3.7 22:24:45 32° SSW 22:27:24 83° W 22:33:01 10° N
Cosmos 1340 3.6 22:26:36 30° SW 22:27:55 43° WNW 22:31:32 10° N
Lacrosse 5 rocket 2.2 22:28:01 10° WSW 22:31:31 42° NW 22:34:57 10° NE
Cosmos 968 Rocket 3.6 22:26:54 10° NNW 22:32:00 65° ENE 22:33:31 43° SE
Cosmos 1992 Rocket 4.3 22:32:39 43° SE 22:33:32 47° ESE 22:38:33 10° NNE
SPOT 5 4.5 22:32:22 19° SW 22:35:01 28° W 22:39:20 10° NW
Cosmos 405 3.7 22:32:22 10° NNW 22:35:39 42° W 22:35:50 41° WSW
Cosmos 1536 Rocket 4.3 22:35:24 29° SW 22:37:17 48° WNW 22:41:37 10° N
Cosmos 1900 4.5 22:32:34 10° NW 22:37:23 59° WSW 22:38:26 47° SSW
GEOS 3 Rocket 3.8 22:36:02 36° ESE 22:38:15 70° NE 22:43:35 10° NNW
Terra 3.3 22:45:01 22° SW 22:46:48 28° W 22:50:54 10° NW
DNEPR-1 R/B 3.5 22:45:57 10° NW 22:50:09 68° WSW 22:50:34 63° SSW
Cosmos 1980 4.0 22:50:46 42° SE 22:51:36 45° ESE 22:56:59 10° NE
Lacrosse 5 4.2 22:54:09 10° WSW 22:54:50 10° WSW 22:55:17 10° WSW
FALCON 9 DEB 4.4 22:56:15 32° NE 22:56:15 32° NE 22:58:08 10° NE
Cosmos 2333 Rocket 3.0 22:50:55 14° SW 22:55:39 48° WNW 23:01:13 10° NNE
Cosmos 2228 3.0 22:56:29 10° NNW 23:00:53 72° W 23:01:23 64° SW
BREEZE-M DEB (TANK) 3.0 22:53:00 10° SW 23:03:59 80° SSE 23:07:17 10° ENE
Okean 1-7 Rocket 4.3 23:06:13 39° E 23:06:16 39° E 23:10:27 10° NNE
Cosmos 2219 Rocket 3.2 23:06:17 15° SW 23:10:36 43° WNW 23:16:01 10° NNE
ATLAS 3B R/B 3.5 23:07:30 10° WSW 23:13:47 47° NW 23:20:18 10° NNE
Meteor 2-10 Rocket 3.9 23:13:01 10° NNW 23:17:55 49° W 23:18:55 42° SW
Cosmos 1503 Rocket 4.1 23:12:43 10° NNW 23:18:07 73° ENE 23:19:20 53° SE
FALCON 9 DEB 4.4 23:19:50 36° NNW 23:19:50 36° NNW 23:22:42 10° NE
SL-16 R/B 3.5 23:20:20 25° ESE 23:20:35 25° ESE 23:25:06 10° NE
SL-8 R/B 4.4 23:16:09 10° WNW 23:19:54 40° WSW 23:19:54 40° WSW
Iridium 2 4.2 23:22:59 51° WNW 23:22:59 51° WNW 23:26:31 10° N
ATLAS CENTAUR R/B 2.6 23:18:53 10° NW 23:22:33 32° WSW 23:22:33 32° WSW
Cosmos 2058 Rocket 2.9 23:20:52 10° N 23:25:20 79° E 23:25:34 76° ESE
Cosmos 2237 Rocket 2.1 23:24:07 55° S 23:25:24 80° ESE 23:31:03 10° NNE
ATLAS CENTAUR R/B 2.9 23:25:36 51° SSE 23:26:41 60° ESE 23:37:46 10° NE
USA 215 3.9 23:23:16 10° NE 23:29:37 55° NNW 23:35:57 10° WSW
Spot 4 4.3 23:31:30 46° WSW 23:32:03 48° W 23:36:42 10° NNW
Cosmos 1867 3.5 23:26:36 10° NW 23:32:03 69° WSW 23:32:53 59° S
Cosmos 1726 Rocket 4.1 23:31:05 10° NNW 23:35:22 48° W 23:35:38 47° WSW
Thor Agena Rocket 3.9 23:30:47 10° NNE 23:35:52 48° E 23:36:27 46° ESE
MINOTAUR IV R/B 4.5 23:36:27 76° ESE 23:36:30 76° ESE 23:41:04 10° NNE
GP-B 4.1 23:32:47 10° NNE 23:36:50 33° E 23:37:02 33° E
Cosmos 1455 2.8 23:34:10 10° NNW 23:37:30 49° WNW 23:37:30 49° WNW
Cosmos 389 Rocket 4.3 23:35:06 10° NW 23:37:17 23° WNW 23:37:17 23° WNW
Meteor 1-21 Rocket 4.1 23:39:35 56° SSW 23:40:51 86° W 23:46:35 10° N
Meteor 1-4 Rocket 3.6 23:42:07 10° N 23:44:51 38° NE 23:44:51 38° NE
COSMOS 2428 4.4 23:42:59 11° WSW 23:47:41 29° NW 23:52:39 10° N
NOSS 0 Rocket 4.4 23:45:23 29° SW 23:48:26 56° WNW 23:54:35 10° NNE
ALOS 2 2.9 23:49:12 53° W 23:49:13 53° W 23:53:32 10° NNW
Cosmos 1892 Rocket 4.5 23:49:28 36° W 23:50:05 38° WNW 23:54:15 10° N
SJ 16-02 2.8 23:51:59 10° N 23:55:52 30° ENE 23:57:01 26° E
